Weather History for El Centro, CA

Change the Weather History Date:

Wednesday, March 13, 2013

  Actual Average Record
Temperature  
Mean Temperature 71 °F -  
Max Temperature 93 °F 77 °F 95 °F (2007)
Min Temperature 51 °F 53 °F 44 °F (2006)
Cooling Degree Days 6    
Growing Degree Days 21 (Base 50)    
Moisture  
Dew Point 28 °F    
Average Humidity 22    
Maximum Humidity 40    
Minimum Humidity 10    
Precipitation  
Precipitation 0.00 in - - ()
Sea Level Pressure  
Sea Level Pressure 30.08 in    
Wind  
Wind Speed 6 mph (West)    
Max Wind Speed 10 mph    
Max Gust Speed -    
Visibility 10 miles    
Events      
Averages and records for this station are not official NWS values.
T = Trace of Precipitation, MM = Missing Value Source: NWS Daily Summary

Daily Weather History Graph

Daily Weather History Graph

Search for Another Location

Airport:

Trip Planner

Search our weather history database for the weather conditions in past years. The results will help you decide how hot, cold, wet, or windy it might be!

Date:

Astronomy

Mar. 13, 2013 Rise Set
Actual Time 6:55 AM PDT 6:49 PM PDT
Civil Twilight 6:30 AM PDT 7:13 PM PDT
Nautical Twilight 6:01 AM PDT 7:42 PM PDT
Astronomical Twilight 5:33 AM PDT 8:11 PM PDT
Moon 7:45 AM PDT (3/13) 8:59 PM PDT (3/13)
Length of Visible Light 12h 43m
Length of Day
11h 54m
Waxing Crescent, 4% of the Moon is Illuminated
Mar 13
Waxing Crescent
Mar 19
First Quarter
Mar 27
Full
Apr 2
Last Quarter
Apr 10
New

Hourly Weather History & Observations

Time (PDT) Temp. Dew Point Humidity Pressure Visibility Wind Dir Wind Speed Gust Speed Precip Events Conditions
12:56 AM 61.0 °F 25.0 °F 25% 30.08 in 10.0 mi West 8.1 mph - N/A   Clear
1:56 AM 61.0 °F 25.0 °F 25% 30.08 in 10.0 mi West 9.2 mph - N/A   Clear
2:56 AM 57.9 °F 24.1 °F 27% 30.07 in 10.0 mi WNW 10.4 mph - N/A   Clear
3:56 AM 57.0 °F 27.0 °F 32% 30.06 in 10.0 mi West 5.8 mph - N/A   Clear
4:56 AM 55.0 °F 26.1 °F 33% 30.07 in 10.0 mi SSW 3.5 mph - N/A   Clear
5:56 AM 51.1 °F 25.0 °F 36% 30.09 in 10.0 mi WNW 6.9 mph - N/A   Clear
6:56 AM 53.1 °F 28.9 °F 40% 30.11 in 10.0 mi West 6.9 mph - N/A   Clear
7:56 AM 57.9 °F 28.0 °F 32% 30.13 in 10.0 mi WSW 3.5 mph - N/A   Clear
8:56 AM 69.1 °F 32.0 °F 25% 30.14 in 10.0 mi West 6.9 mph - N/A   Clear
9:56 AM 78.1 °F 30.0 °F 17% 30.15 in 10.0 mi WNW 3.5 mph - N/A   Clear
10:56 AM 82.9 °F 28.0 °F 14% 30.14 in 10.0 mi WSW 5.8 mph - N/A   Clear
11:56 AM 86.0 °F 25.0 °F 11% 30.13 in 10.0 mi Calm Calm - N/A   Clear
12:56 PM 89.1 °F 27.0 °F 11% 30.10 in 10.0 mi NE 5.8 mph - N/A   Clear
1:56 PM 90.0 °F 28.0 °F 11% 30.07 in 10.0 mi NE 5.8 mph - N/A   Clear
2:56 PM 91.0 °F 28.9 °F 11% 30.06 in 10.0 mi Calm Calm - N/A   Clear
3:56 PM 91.9 °F 27.0 °F 10% 30.04 in 10.0 mi NW 4.6 mph - N/A   Clear
4:56 PM 91.0 °F 27.0 °F 10% 30.02 in 10.0 mi Calm Calm - N/A   Clear
5:56 PM 89.1 °F 28.9 °F 12% 30.02 in 10.0 mi SW 3.5 mph - N/A   Clear
6:56 PM 82.9 °F 30.9 °F 15% 30.02 in 10.0 mi South 4.6 mph - N/A   Clear
7:56 PM 79.0 °F 35.1 °F 20% 30.02 in 10.0 mi Calm Calm - N/A   Clear
8:56 PM 73.0 °F 36.0 °F 26% 30.04 in 10.0 mi WSW 3.5 mph - N/A   Clear
9:56 PM 68.0 °F 30.9 °F 25% 30.06 in 10.0 mi West 8.1 mph - N/A   Clear
10:56 PM 68.0 °F 30.0 °F 24% 30.06 in 10.0 mi WSW 5.8 mph - N/A   Clear
11:56 PM 64.9 °F 28.0 °F 25% 30.05 in 10.0 mi West 9.2 mph - N/A   Clear